| time (UTC) | temp F | wind direction | speed MPH | gust MPH | rain 1hr in | rain 24hr in | rain mn in | humidity % | barometer mb |
| 20260510182002 | 96 | 48 | 4.0 | 11.0 | 0.00 | 0.00 | 0.00 | 52 | 1017.1 |
| 20260510181002 | 95 | 267 | 9.0 | 13.0 | 0.00 | 0.00 | 0.00 | 56 | 1017.2 |
| 20260510180003 | 92 | 212 | 2.0 | 4.0 | 0.00 | 0.00 | 0.00 | 61 | 1017.3 |
| 20260510175000 | 92 | 112 | 6.0 | 9.0 | 0.00 | 0.00 | 0.00 | 60 | 1017.4 |
| 20260510174001 | 92 | 249 | 4.0 | 7.0 | 0.00 | 0.00 | 0.00 | 61 | 1017.5 |
| 20260510172959 | 92 | 21 | 2.0 | 10.0 | 0.00 | 0.00 | 0.00 | 63 | 1017.8 |
| 20260510171957 | 92 | 260 | 0.0 | 10.0 | 0.00 | 0.00 | 0.00 | 61 | 1018.0 |
| 20260510170957 | 92 | 37 | 2.0 | 15.0 | 0.00 | 0.00 | 0.00 | 59 | 1017.8 |
| 20260510165954 | 93 | 258 | 2.0 | 6.0 | 0.00 | 0.00 | 0.00 | 60 | 1018.1 |
| 20260510164953 | 90 | 232 | 4.0 | 6.0 | 0.00 | 0.00 | 0.00 | 69 | 1018.1 |
| 20260510163952 | 91 | 180 | 0.0 | 7.0 | 0.00 | 0.00 | 0.00 | 69 | 1018.1 |
| 20260510162949 | 91 | 240 | 3.0 | 5.0 | 0.00 | 0.00 | 0.00 | 69 | 1018.4 |
| 20260510161948 | 91 | 187 | 1.0 | 8.0 | 0.00 | 0.00 | 0.00 | 69 | 1018.5 |
| 20260510160947 | 91 | 197 | 4.0 | 7.0 | 0.00 | 0.00 | 0.00 | 70 | 1018.5 |
| 20260510155942 | 90 | 203 | 3.0 | 10.0 | 0.00 | 0.00 | 0.00 | 71 | 1018.5 |
| 20260510154942 | 89 | 243 | 3.0 | 6.0 | 0.00 | 0.00 | 0.00 | 74 | 1018.4 |
| 20260510153937 | 89 | 270 | 5.0 | 11.0 | 0.00 | 0.00 | 0.00 | 74 | 1018.6 |
| 20260510152937 | 87 | 246 | 7.0 | 15.0 | 0.00 | 0.00 | 0.00 | 77 | 1018.6 |
| 20260510151937 | 88 | 239 | 4.0 | 8.0 | 0.00 | 0.00 | 0.00 | 76 | 1018.4 |
| 20260510150935 | 87 | 245 | 7.0 | 8.0 | 0.00 | 0.00 | 0.00 | 77 | 1018.4 |
| 20260510145933 | 87 | 203 | 2.0 | 6.0 | 0.00 | 0.00 | 0.00 | 77 | 1018.4 |
| 20260510144932 | 86 | 175 | 5.0 | 6.0 | 0.00 | 0.00 | 0.00 | 77 | 1018.4 |
| 20260510143931 | 86 | 270 | 6.0 | 10.0 | 0.00 | 0.00 | 0.00 | 78 | 1018.3 |
| 20260510142930 | 86 | 289 | 2.0 | 7.0 | 0.00 | 0.00 | 0.00 | 79 | 1018.2 |
| 20260510141929 | 85 | 216 | 0.0 | 7.0 | 0.00 | 0.00 | 0.00 | 81 | 1018.0 |
| 20260510140923 | 84 | 248 | 6.0 | 6.0 | 0.00 | 0.00 | 0.00 | 82 | 1018.0 |
| 20260510135918 | 83 | 192 | 2.0 | 5.0 | 0.00 | 0.00 | 0.00 | 84 | 1018.0 |
| 20260510134918 | 82 | 202 | 2.0 | 5.0 | 0.00 | 0.00 | 0.00 | 86 | 1018.0 |
| 20260510133916 | 81 | 246 | 5.0 | 8.0 | 0.00 | 0.00 | 0.00 | 86 | 1018.1 |
| 20260510132914 | 81 | 204 | 2.0 | 6.0 | 0.00 | 0.00 | 0.00 | 88 | 1018.0 |
| 20260510131909 | 81 | 195 | 2.0 | 5.0 | 0.00 | 0.00 | 0.00 | 88 | 1017.9 |
| 20260510130908 | 81 | 259 | 3.0 | 4.0 | 0.00 | 0.00 | 0.00 | 89 | 1017.8 |
| 20260510125908 | 78 | 119 | 3.0 | 5.0 | 0.00 | 0.00 | 0.00 | 92 | 1017.9 |
| 20260510124907 | 77 | 243 | 0.0 | 5.0 | 0.00 | 0.00 | 0.00 | 95 | 1017.7 |
| 20260510123906 | 77 | 236 | 2.0 | 4.0 | 0.00 | 0.00 | 0.00 | 94 | 1017.8 |
| 20260510122904 | 77 | 236 | 4.0 | 4.0 | 0.00 | 0.00 | 0.00 | 96 | 1017.6 |
| 20260510121901 | 76 | 213 | 2.0 | 4.0 | 0.00 | 0.00 | 0.00 | 97 | 1017.4 |
| 20260510120856 | 75 | 270 | 2.0 | 5.0 | 0.00 | 0.00 | 0.00 | 99 | 1017.4 |
| 20260510115854 | 74 | 254 | 2.0 | 4.0 | 0.00 | 0.00 | 0.00 | 99 | 1017.2 |
| 20260510114853 | 73 | 255 | 0.0 | 4.0 | 0.00 | 0.00 | 0.00 | 99 | 1017.1 |
| 20260510113851 | 73 | 229 | 0.0 | 3.0 | 0.00 | 0.00 | 0.00 | 99 | 1016.8 |
| 20260510112850 | 73 | 190 | 0.0 | 2.0 | 0.00 | 0.00 | 0.00 | 99 | 1016.8 |
| 20260510111848 | 72 | 188 | 0.0 | 3.0 | 0.00 | 0.00 | 0.00 | 99 | 1016.3 |
| 20260510110845 | 72 | 172 | 0.0 | 0.0 | 0.00 | 0.00 | 0.00 | 99 | 1016.2 |
| 20260510105845 | 72 | 186 | 0.0 | 1.0 | 0.00 | 0.00 | 0.00 | 99 | 1016.0 |
| 20260510104841 | 72 | 126 | 0.0 | 2.0 | 0.00 | 0.00 | 0.00 | 99 | 1015.9 |
| 20260510103840 | 72 | 157 | 0.0 | 2.0 | 0.00 | 0.00 | 0.00 | 99 | 1016.1 |
| 20260510102838 | 72 | 188 | 0.0 | 2.0 | 0.00 | 0.00 | 0.00 | 99 | 1015.8 |
| 20260510101837 | 72 | 195 | 2.0 | 5.0 | 0.00 | 0.00 | 0.00 | 99 | 1015.7 |
| 20260510100837 | 72 | 200 | 0.0 | 3.0 | 0.00 | 0.00 | 0.00 | 99 | 1015.6 |
| 20260510095838 | 73 | 186 | 0.0 | 3.0 | 0.00 | 0.00 | 0.00 | 99 | 1015.2 |
| 20260510094832 | 72 | 98 | 0.0 | 2.0 | 0.00 | 0.00 | 0.00 | 99 | 1015.4 |
| 20260510093830 | 73 | 180 | 0.0 | 1.0 | 0.00 | 0.00 | 0.00 | 99 | 1015.3 |
| 20260510092828 | 73 | 194 | 1.0 | 4.0 | 0.00 | 0.00 | 0.00 | 99 | 1015.3 |
| 20260510091826 | 73 | 199 | 2.0 | 3.0 | 0.00 | 0.00 | 0.00 | 99 | 1015.3 |
| 20260510090825 | 72 | 168 | 0.0 | 3.0 | 0.00 | 0.00 | 0.00 | 99 | 1015.2 |
| 20260510085824 | 72 | 180 | 0.0 | 2.0 | 0.00 | 0.00 | 0.00 | 99 | 1015.0 |
| 20260510084820 | 72 | 206 | 2.0 | 5.0 | 0.00 | 0.00 | 0.00 | 99 | 1015.0 |
| 20260510083820 | 72 | 114 | 0.0 | 3.0 | 0.00 | 0.00 | 0.00 | 99 | 1014.7 |
| 20260510082818 | 72 | 145 | 1.0 | 3.0 | 0.00 | 0.00 | 0.00 | 99 | 1014.8 |
| 20260510081814 | 72 | 180 | 0.0 | 3.0 | 0.00 | 0.00 | 0.00 | 99 | 1014.7 |
| 20260510080812 | 72 | 168 | 0.0 | 2.0 | 0.00 | 0.00 | 0.00 | 99 | 1014.8 |
| 20260510075810 | 72 | 180 | 0.0 | 3.0 | 0.00 | 0.00 | 0.00 | 99 | 1014.8 |
| 20260510074810 | 72 | 157 | 0.0 | 2.0 | 0.00 | 0.00 | 0.00 | 99 | 1014.8 |
| 20260510073809 | 72 | 173 | 3.0 | 3.0 | 0.00 | 0.00 | 0.00 | 99 | 1014.8 |
| 20260510072807 | 72 | 110 | 0.0 | 2.0 | 0.00 | 0.00 | 0.00 | 99 | 1015.2 |
| 20260510071806 | 72 | 145 | 0.0 | 2.0 | 0.00 | 0.00 | 0.00 | 99 | 1015.2 |
| 20260510070802 | 72 | 175 | 1.0 | 2.0 | 0.00 | 0.00 | 0.00 | 99 | 1015.1 |
| 20260510065758 | 72 | 145 | 1.0 | 3.0 | 0.00 | 0.00 | 0.00 | 99 | 1015.3 |
| 20260510064758 | 72 | 165 | 2.0 | 2.0 | 0.00 | 0.00 | 0.00 | 99 | 1015.4 |
| 20260510063757 | 73 | 106 | 0.0 | 2.0 | 0.00 | 0.00 | 0.00 | 99 | 1015.5 |
| 20260510062756 | 73 | 172 | 0.0 | 0.0 | 0.00 | 0.00 | 0.00 | 99 | 1015.7 |
| 20260510061753 | 73 | 186 | 0.0 | 2.0 | 0.00 | 0.00 | 0.00 | 99 | 1015.9 |
| 20260510060752 | 72 | 264 | 2.0 | 3.0 | 0.00 | 0.00 | 0.00 | 99 | 1015.9 |
| 20260510055752 | 72 | 180 | 0.0 | 0.0 | 0.00 | 0.00 | 0.00 | 99 | 1015.9 |
| 20260510054749 | 72 | 106 | 0.0 | 1.0 | 0.00 | 0.00 | 0.00 | 99 | 1016.4 |
| 20260510053745 | 72 | 106 | 0.0 | 0.0 | 0.00 | 0.00 | 0.00 | 99 | 1016.5 |
| 20260510052743 | 72 | 106 | 0.0 | 0.0 | 0.00 | 0.00 | 0.00 | 99 | 1016.5 |
| 20260510051742 | 73 | 90 | 1.0 | 2.0 | 0.00 | 0.00 | 0.00 | 99 | 1016.5 |
| 20260510050741 | 73 | 200 | 0.0 | 0.0 | 0.00 | 0.00 | 0.00 | 99 | 1016.6 |
| 20260510045741 | 73 | 166 | 0.0 | 2.0 | 0.00 | 0.00 | 0.00 | 99 | 1016.8 |
| 20260510044740 | 73 | 105 | 0.0 | 0.0 | 0.00 | 0.00 | 0.00 | 98 | 1016.8 |
| 20260510043739 | 73 | 90 | 0.0 | 0.0 | 0.00 | 0.00 | 0.00 | 97 | 1017.2 |
| 20260510042734 | 74 | 165 | 0.0 | 0.0 | 0.00 | 0.00 | 0.00 | 96 | 1017.2 |
| 20260510041732 | 74 | 114 | 0.0 | 1.0 | 0.00 | 0.00 | 0.00 | 96 | 1017.1 |
| 20260510040733 | 74 | 173 | 0.0 | 1.0 | 0.00 | 0.00 | 0.00 | 94 | 1017.1 |
| 20260510035730 | 74 | 165 | 0.0 | 1.0 | 0.00 | 0.00 | 0.00 | 94 | 1017.3 |
| 20260510034728 | 74 | 78 | 0.0 | 3.0 | 0.00 | 0.00 | 0.00 | 94 | 1017.0 |
| 20260510033728 | 74 | 105 | 0.0 | 1.0 | 0.00 | 0.00 | 0.00 | 94 | 1017.2 |
| 20260510032728 | 73 | 0 | 0.0 | 0.0 | 0.00 | 0.00 | 0.00 | 94 | 1017.2 |
| 20260510031725 | 73 | 74 | 0.0 | 0.0 | 0.00 | 0.00 | 0.00 | 94 | 1016.9 |
| 20260510030720 | 73 | 114 | 0.0 | 1.0 | 0.00 | 0.00 | 0.00 | 94 | 1017.0 |
| 20260510025716 | 73 | 126 | 0.0 | 0.0 | 0.00 | 0.00 | 0.00 | 94 | 1016.9 |
| 20260510024716 | 73 | 126 | 0.0 | 0.0 | 0.00 | 0.00 | 0.00 | 93 | 1016.9 |
| 20260510023714 | 74 | 81 | 0.0 | 0.0 | 0.00 | 0.00 | 0.00 | 92 | 1016.8 |
| 20260510022713 | 74 | 111 | 0.0 | 0.0 | 0.00 | 0.00 | 0.00 | 92 | 1016.8 |
| 20260510021709 | 74 | 180 | 0.0 | 0.0 | 0.00 | 0.00 | 0.00 | 91 | 1016.8 |
| 20260510020707 | 75 | 105 | 0.0 | 1.0 | 0.00 | 0.00 | 0.00 | 90 | 1016.7 |
| 20260510015704 | 75 | 112 | 0.0 | 2.0 | 0.00 | 0.00 | 0.00 | 89 | 1016.5 |
| 20260510014701 | 75 | 82 | 0.0 | 2.0 | 0.00 | 0.00 | 0.00 | 88 | 1016.5 |
| 20260510013659 | 75 | 69 | 0.0 | 3.0 | 0.00 | 0.00 | 0.00 | 87 | 1016.6 |
| 20260510012655 | 76 | 90 | 2.0 | 2.0 | 0.00 | 0.00 | 0.00 | 87 | 1016.2 |
| 20260510011652 | 76 | 59 | 2.0 | 4.0 | 0.00 | 0.00 | 0.00 | 86 | 1016.1 |
| 20260510010650 | 76 | 81 | 0.0 | 3.0 | 0.00 | 0.00 | 0.00 | 86 | 1016.1 |
| 20260510005649 | 77 | 286 | 0.0 | 3.0 | 0.00 | 0.00 | 0.00 | 86 | 1016.0 |
| 20260510004644 | 77 | 203 | 1.0 | 3.0 | 0.00 | 0.00 | 0.00 | 85 | 1015.8 |
| 20260510003639 | 77 | 33 | 3.0 | 5.0 | 0.00 | 0.00 | 0.00 | 85 | 1015.8 |
| 20260510002635 | 77 | 111 | 1.0 | 2.0 | 0.00 | 0.00 | 0.00 | 85 | 1015.7 |
| 20260510001634 | 77 | 109 | 3.0 | 7.0 | 0.00 | 0.00 | 0.00 | 85 | 1015.5 |
| 20260510000633 | 78 | 283 | 0.0 | 5.0 | 0.00 | 0.00 | 0.00 | 85 | 1015.2 |
| 20260509235632 | 79 | 312 | 2.0 | 5.0 | 0.00 | 0.00 | 0.00 | 85 | 1015.3 |
| 20260509234631 | 80 | 254 | 0.0 | 6.0 | 0.00 | 0.00 | 0.00 | 85 | 1015.2 |
| 20260509233626 | 82 | 336 | 2.0 | 6.0 | 0.00 | 0.00 | 0.00 | 74 | 1014.8 |
| 20260509232625 | 83 | 330 | 2.0 | 8.0 | 0.00 | 0.00 | 0.00 | 74 | 1014.6 |
| 20260509231625 | 83 | 319 | 2.0 | 7.0 | 0.00 | 0.00 | 0.00 | 73 | 1014.6 |
| 20260509230625 | 84 | 324 | 2.0 | 6.0 | 0.00 | 0.00 | 0.00 | 73 | 1014.6 |
| 20260509225623 | 84 | 307 | 3.0 | 7.0 | 0.00 | 0.00 | 0.00 | 72 | 1014.5 |
| 20260509224620 | 85 | 283 | 2.0 | 5.0 | 0.00 | 0.00 | 0.00 | 70 | 1014.3 |
| 20260509223620 | 86 | 345 | 2.0 | 7.0 | 0.00 | 0.00 | 0.00 | 69 | 1014.1 |
| 20260509222620 | 86 | 157 | 2.0 | 4.0 | 0.00 | 0.00 | 0.00 | 68 | 1013.9 |
| 20260509221617 | 88 | 327 | 3.0 | 5.0 | 0.00 | 0.00 | 0.00 | 63 | 1013.9 |
| 20260509220616 | 89 | 294 | 5.0 | 5.0 | 0.00 | 0.00 | 0.00 | 60 | 1013.9 |
| 20260509215614 | 89 | 257 | 7.0 | 12.0 | 0.00 | 0.00 | 0.00 | 60 | 1013.8 |
| 20260509214614 | 90 | 23 | 0.0 | 9.0 | 0.00 | 0.00 | 0.00 | 60 | 1013.7 |
| 20260509213613 | 90 | 250 | 3.0 | 11.0 | 0.00 | 0.00 | 0.00 | 60 | 1013.5 |
| 20260509212613 | 92 | 83 | 3.0 | 11.0 | 0.00 | 0.00 | 0.00 | 57 | 1013.5 |
| 20260509211611 | 92 | 300 | 3.0 | 7.0 | 0.00 | 0.00 | 0.00 | 58 | 1013.3 |
| 20260509210610 | 91 | 244 | 5.0 | 7.0 | 0.00 | 0.00 | 0.00 | 63 | 1013.3 |
| 20260509205608 | 90 | 328 | 0.0 | 6.0 | 0.00 | 0.00 | 0.00 | 61 | 1013.4 |
| 20260509204605 | 89 | 245 | 3.0 | 10.0 | 0.00 | 0.00 | 0.00 | 62 | 1013.6 |
| 20260509203604 | 89 | 201 | 2.0 | 6.0 | 0.00 | 0.00 | 0.00 | 63 | 1013.6 |
| 20260509202602 | 90 | 97 | 1.0 | 7.0 | 0.00 | 0.00 | 0.00 | 63 | 1013.6 |
| 20260509201558 | 89 | 330 | 2.0 | 6.0 | 0.00 | 0.00 | 0.00 | 64 | 1013.3 |
| 20260509200556 | 87 | 241 | 0.0 | 4.0 | 0.00 | 0.00 | 0.00 | 69 | 1013.6 |
| 20260509195554 | 86 | 241 | 0.0 | 4.0 | 0.00 | 0.00 | 0.00 | 69 | 1013.5 |
| 20260509194554 | 86 | 234 | 0.0 | 3.0 | 0.00 | 0.00 | 0.00 | 68 | 1013.5 |
| 20260509193554 | 86 | 257 | 1.0 | 8.0 | 0.00 | 0.00 | 0.00 | 70 | 1013.7 |
| 20260509192553 | 83 | 270 | 2.0 | 6.0 | 0.00 | 0.00 | 0.00 | 76 | 1013.9 |
| 20260509191548 | 82 | 226 | 5.0 | 15.0 | 0.00 | 0.00 | 0.00 | 80 | 1014.1 |
| 20260509190547 | 89 | 206 | 1.0 | 11.0 | 0.00 | 0.00 | 0.00 | 60 | 1014.0 |
| 20260509185542 | 90 | 213 | 2.0 | 11.0 | 0.00 | 0.00 | 0.00 | 58 | 1014.2 |
| 20260509184537 | 91 | 277 | 4.0 | 16.0 | 0.00 | 0.00 | 0.00 | 56 | 1014.2 |
| 20260509183534 | 91 | 258 | 3.0 | 9.0 | 0.00 | 0.00 | 0.00 | 57 | 1014.0 |